Location: Unspecified
(0.0000°N, 0.0000°E)
Time: 00:36:55
(UTC+01:00)

Cosmos 773 Rocket - Visible Passes

Search period start: 13 December 2017 00:00
Search period end: 23 December 2017 00:00
Orbit: 746 x 777 km, 74.1° (Epoch: 11 December)

Date Brightness Start Highest point End Pass type
(mag) Time Alt. Az. Time Alt. Az. Time Alt. Az.
13 Dec 4.1 05:44:01 10° S 05:49:09 77° ESE 05:54:15 10° NNE visible
14 Dec 5.6 05:05:32 10° SSE 05:10:09 34° ESE 05:14:45 10° NE visible
15 Dec 6.7 04:28:09 10° SE 04:31:09 16° ESE 04:34:10 10° ENE visible
15 Dec 4.8 06:08:26 10° SW 06:12:47 28° WNW 06:17:07 10° NNW visible
16 Dec 3.9 05:28:44 10° SSW 05:33:48 62° WNW 05:38:50 10° N visible
17 Dec 4.4 04:49:47 10° S 04:54:49 58° ESE 04:59:50 10° NNE visible
18 Dec 5.8 04:11:35 10° SSE 04:15:50 26° ESE 04:16:04 26° E visible
18 Dec 5.6 05:54:14 10° WSW 05:55:55 15° W 05:55:55 15° W visible
19 Dec 5.9 05:13:46 10° SW 05:14:40 15° SW 05:14:40 15° SW visible
